sat.trackr.live / text

‹ back to catalog

STARLINK-37083

NORAD 68227 · 2026-053W

PAYLOAD ACTIVE UNKNOWN

§ Identity

Operator
Country
US
Launch date
2026-03-17
Launch site
AFWTR
Launch vehicle
Mass (kg)
RCS (m²)

Purposes: comms

External: N2YO · Heavens-Above · Gunter

§ Orbital elements

Epoch: 2026-09-19T21:31:20.972928Z

Period
93.91 min
Inclination
97.2856°
Eccentricity
0.0002236
Mean motion
15.33443881 rev/d
Perigee alt
464.0 km
Apogee alt
467.1 km
Semi-major
6,843.7 km
B*
3.2978e-4
RAAN
136.7258°
Arg perigee
90.6834°
Mean anomaly
269.4665°
Rev number
2,995

§ Raw data

STARLINK-370831 68227U 26053W   26262.89677052  .00010586  00000+0  32978-3 0  99942 68227  97.2856 136.7258 0002236  90.6834 269.4665 15.33443881 29952

JSON: /api/v1/satellites/68227 · /tle

For live sub-satellite position, see the globe view (requires WebGL).

§ Visibility from observer

Set your observer location to see the next 7 days of passes ≥ 10°. The values pass through the URL so the page stays shareable.

No JS? Fill the form by hand. The geolocation button needs JavaScript.